Regional Weather Roundup
Issued by NWS

Home | Current Version | Previous Version | Graphics & Text | Print | Product List | Glossary On
Versions: 1 2 3 4 5 6 7 8 9 10 11 12 13 14 15 16 17 18 19 20 21 22 23 24 25 26 27 28 29 30 31 32 33 34 35 36 37 38 39 40 41 42 43 44 45 46 47 48 49 50
000
ASUS45 KTFX 100519
RWRMT
MONTANA HOURLY WEATHER ROUNDUP
NATIONAL WEATHER SERVICE GREAT FALLS MT
1119 PM MDT WED JUL 9 2014

NOTE: "FAIR" INDICATES FEW OR NO CLOUDS BELOW 12000 FEET WITH NO
SIGNIFICANT WEATHER AND/OR OBSTRUCTIONS TO VISIBILITY.

* THESE STATIONS ARE NOT UNDER NWS QUALITY CONTROL. THEY DO NOT
   REPORT WEATHER SUCH AS PRECIPITATION OR FOG.

MTZ001>007-043-100600-
WEST OF THE DIVIDE
CITY           SKY/WX    TMP DP  RH WIND       PRES   REMARKS
KALISPELL      CLEAR     64  55  73 CALM      29.81R
MISSOULA       PTCLDY    72  48  43 N7        29.87R
BUTTE          LGT RAIN  59  55  87 VRB5      30.06F
MULLAN PASS    CLEAR     64  43  47 W7        30.05S
* ESSEX        N/A      N/A N/A N/A N/A        N/A
* LINCOLN      N/A       70  50  49 SE2G7      N/A
* LOOKOUT PASS N/A       66  47  51 S2         N/A
* POLSON       N/A       70  49  47 S1         N/A
* RONAN APT    CLEAR     70  57  64 N/A        N/A
* SEELEY LAKE  N/A       65  53  65 NE2        N/A
* THOMP F APT  CLEAR     67  45  45 NW7G19     N/A
* YAAK HILL    N/A       69  51  53 N/A        N/A
$$

MTZ008-052>055-100600-
SOUTHWEST MONTANA
CITY           SKY/WX    TMP DP  RH WIND       PRES   REMARKS
BOZEMAN        CLOUDY    72  48  43 W9        30.00R
DILLON         CLOUDY    68  46  45 SE9       30.05R
W YELLOWSTONE  CLOUDY    55  55 100 W3        30.14S
* THREE FORKS  CLOUDY    73  54  51 N/A        N/A
* BOULDER HILL N/A       67  41  39 S8         N/A
* MONIDA PASS  N/A       58  49  72 NW8        N/A
* RAYNOLDS PAS N/A       56  22  27 NE3        N/A
* WHITEHALL    N/A       67  51  57 W9G20      N/A
* WISE RIVER   N/A       58  53  84 N4G16      N/A
$$

MTZ009>010-012-014-046-048-049-054-100600-
EAST SLOPES AND CENTRAL MONTANA
CITY           SKY/WX    TMP DP  RH WIND       PRES   REMARKS
CUT BANK       PTCLDY    72  46  40 W14       29.81S
GREAT FALLS    CLOUDY    73  46  38 W6        29.82S
HELENA         CLOUDY    81  45  28 S3        29.88S
* CONRAD       MOCLDY    64  55  73 W5         N/A
* DEARBORN     N/A       81  46  29 S2         N/A
* EAST GLACIER N/A       72  45  38 W14G20     N/A
* MONARCH      N/A       72  35  26 W10        N/A
* PENDROY      N/A       71  47  43 SW5        N/A
* ROGERS PASS  N/A       71  43  37 E7G13      N/A
* SAINT MARY   N/A       72  44  37 S4G11      N/A
* SWEET GRASS  N/A       71  51  49 SW11G16    N/A
* WHITE SULPH  N/A       65  46  50 S17G26     N/A
$$

MTZ011-013-016-021-035-040-045-047-050-051-100600-
NORTH CENTRAL MONTANA
CITY           SKY/WX    TMP DP  RH WIND       PRES   REMARKS
HAVRE          MOCLDY    73  54  51 S3        29.71F
LEWISTOWN      CLOUDY    73  48  41 SW13      29.86S
* FORT BENTON  CLOUDY    77  48  36 SW3       29.75F
* CHESTER      N/A       75  46  36 NW1        N/A
* DENTON       N/A       72  49  44 SW6        N/A
* GEYSER       N/A       71  44  38 SW7        N/A
* JUDITH GAP   N/A       75  49  40 SW20       N/A
* LOMA         N/A       81  47  30 SW2G8      N/A
$$

MTZ017>020-022>027-061-062-100600-
NORTHEAST MONTANA
CITY           SKY/WX    TMP DP  RH WIND       PRES   REMARKS
GLASGOW        CLEAR     70  54  57 E10       29.75F
GLENDIVE       CLEAR     73  54  51 S14       29.85F
JORDAN         PTCLDY    75  50  42 SE10      29.76F
SIDNEY         CLEAR     68  55  63 S9        29.85F
WOLF POINT     CLEAR     72  54  53 E6        29.77F
* BEAVER HILL  N/A       67  56  68 SE16       N/A
* CIRCLE       N/A       69  57  66 N/A        N/A
* LINDSAY DVD  N/A       64  54  70 SE7        N/A
* NAVAJO       N/A       65  58  78 SE9        N/A
* SACO         N/A       77  54  45 E13G19     N/A
$$

MTZ028>042-056>058-100600-
SOUTHCENTRAL AND SOUTHEAST MONTANA
CITY           SKY/WX    TMP DP  RH WIND       PRES   REMARKS
BAKER          CLEAR     66  55  68 SE16      29.91F
BILLINGS       MOCLDY    79  55  44 SW9       29.84R
LIVINGSTON     CLOUDY    77  45  32 SW16      29.95S
MILES CITY     MOCLDY    75  54  48 SE14G24   29.82F
* LAUREL APT   MOCLDY    72  55  55 N/A        N/A
* ROUNDUP APT  CLOUDY    79  50  36 S8         N/A
* ALZADA       N/A       67  53  61 E11        N/A
* HYSHAM       N/A       79  50  36 SE6G13     N/A
* LAME DEER    N/A       71  51  49 E9G14      N/A
* REED POINT   N/A       80  49  34 W15G20     N/A
* ROSCOE HILL  N/A       70  42  36 SW6        N/A
$$

REGIONAL REPORTS...DAKOTAS
CITY           SKY/WX    TMP DP  RH WIND       PRES   REMARKS
WILLISTON      CLEAR     72  59  64 SE10      29.85F
DICKINSON      CLEAR     64  57  78 S10       29.92S
CROSBY         N/A       66  64  93 S15G21    29.84F
TIOGA          CLEAR     64  64 100 SE8       29.91F
WATFORD CITY   CLEAR     66  57  73 SE12      29.85F
BISMARCK       HAZE      64  59  84 SE6       29.95S
GRAND FORKS    CLEAR     63  54  73 SE6       29.97S
FARGO          CLEAR     63  52  68 SE6       29.98S
BUFFALO SD     CLEAR     63  55  75 SE10      29.90S
RAPID CITY     CLEAR     61  55  81 SE7       29.98S
$$

REGIONAL REPORTS...WYOMING/IDAHO/WASHINGTON
CITY           SKY/WX    TMP DP  RH WIND       PRES   REMARKS
GILLETTE       CLOUDY    73  57  57 S16G24    29.95R
SHERIDAN       CLOUDY    73  55  53 SW22G28   29.92R
YELLOWSTONE LA MOCLDY    61  46  58 CALM      30.22F
SALMON         CLOUDY    64  55  73 CALM      30.02R
MULLAN PASS    CLEAR     64  43  47 W7        30.05S
SAND POINT     CLEAR     63  54  73 CALM      29.78R
SPOKANE        FAIR      77  32  19 SW12      29.79R
$$

REGIONAL REPORTS...ALBERTA
CITY           SKY/WX    TMP DP  RH WIND       PRES   REMARKS
CALGARY        FAIR      61  54  78 N18G29    29.81R
LETHBRIDGE     CLEAR     72  48  43 SW17      29.70S
EDMONTON       MOCLDY    63  57  81 NW5       29.77R
WATERTON GATE  N/A       68  43  40 SW8        N/A
CARDSTON       N/A       68  46  45 SW7        N/A
MILK RIVER     N/A       75  45  34 W14        N/A
$$

REGIONAL REPORTS...SASKATCHEWAN
CITY           SKY/WX    TMP DP  RH WIND       PRES   REMARKS
SWIFT CURRENT  FAIR      66  55  68 S15       29.70F
REGINA         N/A       66  61  84 SE16      29.78F
VAL MARIE      N/A       70  54  57 SE12       N/A
ASSINIBOIA     N/A       64  57  78 SE8        N/A
CORONACH       N/A       63  57  81 SE7        N/A

$$




USA.gov is the U.S. government's official web portal to all federal, state and local government web resources and services.